Погода в Судачьем

Россия / Астраханская область     45°51′27″N   47°33′31″E
темп.,
°C
ветер,
м/с
пор.,
м/с
влажн.,
%
обл.,
%
осадки,
мм/ч
давл.,
гПа
погр.,
м
24 сентября, пт
пт2401:00+14ссз6885100 2.9 1011364
04:00+14с6987100 3.9 1009346
07:00+14с71087100 0.0 1007474
10:00+15ссз9108083 0.0 1008613
13:00+14сз91080100 0.0 1008559
16:00+16сз10107258 0.0 1009770
19:00+14сз81276100 0.0 1011705
22:00+13зсз61069100 0.0 1013586
25 сентября, сб
сб2501:00+12зсз498033 0.0 1013346
04:00+11з35814 0.0 1013127
07:00+11зсз33840 0.0 101347
10:00+15зюз2263100 0.0 1013479
13:00+18ю2145100 0.0 10121043
16:00+20з2241100 0.0 10121230
19:00+17ссз2249100 0.0 101312
22:00+18зюз2348100 0.0 101471
26 сентября, вс
вс2601:00+14зюз5878100 0.9 1015429
04:00+14зюз7117495 1.1 1016716
07:00+12з610801 0.0 1016427
10:00+16з810595 0.0 1017850
13:00+19з894658 0.1 10161952
16:00+18з81043100 0.1 10152265
19:00+16з8115487 0.0 1015681
22:00+15зюз71469100 0.1 10131112
27 сентября, пн
пн2701:00+15зюз9167882 0.4 10121136
04:00+16з91469100 0.5 10111037
07:00+15з813684 0.1 1011843
10:00+16зсз914514 0.1 10121428
13:00+18зсз911414 0.0 10131721
16:00+18зсз911365 0.0 10132278
19:00+16сз594121 0.0 1014349
22:00+13сз36525 0.0 1016163
28 сентября, вт
вт2801:00+12зсз36610 0.0 1016149
04:00+11зсз36680 0.0 1017129
07:00+10зсз35745 0.0 101991
10:00+15сз44545 0.0 1020536
13:00+18ссз544298 0.0 10201897
16:00+18с444584 0.0 10201715
19:00+15ссз355420 0.0 102283
22:00+14ссв795758 0.1 1024520